SCP
0 0 0 0 0 -0 0 0 0 0 0 0 0 0 0 0 -0 -0 0 0 0 -0 -0 0 0 0 0 0 0 0 0 0 0 0 0 0 0 0 0 0 0 0 0 0
0 0 0 0 0 0 0 0 0 0 0 0 0 0 0 0 0 0 0 0 0 0 0 0 0 0 1 0 0 0 0 0 0 0 0 0 0 0 0 1 0 0 0 0
0 0 0 0 0 0 0 1 0 0 0 0 0 0 0 0 -0 0 0 0 0 0 0 0 0 0 0 0 0 0 0 0 0 0 0 0 0 -0 0 0 0 0 0 0
0 0 0 0 0 0 0 0 0 0 0 0 0 0 0 0 -0 0 0 0 0 0 0 0 0 0 0 0 0 0 0 0 0 0 0 0 0 0 0 0 0 0 0 0
0 0 0 0 0 0 0 0 0 0 0 0 0 0 0 0 -0 0 0 0 0 0 0 0 0 0 0 0 0 0 0 0 0 0 0 0 0 0 0 0 0 0 0 0
0 0 0 0 0 0 0 0 0 0 0 0 0 0 0 0 0 0 0 0 0 0 0 0 0 0 0 0 0 0 0 0 0 0 0 0 0 0 0 0 0 0 0 0
0 0 -0 0 0 0 0 0 -0 -0 -0 0 0 0 0 0 0 0 0 0 0 0 0 0 0 0 0 0 0 0 0 0 0 0 0 0 0 0 0 0 0 0 0 0
0 0 0 0 0 0 0 0 0 -0 -0 0 0 0 0 0 0 0 0 0 0 0 0 0 0 0 0 0 0 0 0 0 0 0 0 0 0 0 0 0 0 0 0 0
-0 0 0 0 0 0 0 0 0 -0 -0 -0 -0 0 0 0 0 0 0 0 0 0 0 0 0 0 0 0 0 0 0 0 0 0 0 0 0 0 0 0 0 0 0 0
-0 -0 0 0 0 0 0 0 0 0 0 0 0 0 0 0 0 0 0 0 0 0 0 0 0 0 0 0 0 0 0 0 0 0 0 0 0 0 0 0 0 0 0 0
0 -0 0 0 0 0 0 0 0 0 0 0 0 0 0 0 0 0 0 0 0 0 0 0 0 0 0 0 0 0 0 0 0 0 0 0 0 0 0 0 0 0 0 0
0 0 0 0 0 0 0 0 0 0 0 0 0 0 0 0 0 0 0 0 0 0 0 0 0 0 0 0 0 0 0 0 0 0 0 0 0 0 0 0 0 0 0 0
-0 0 -0 0 0 0 0 0 0 0 0 0 0 0 0 0 0 0 0 0 0 0 0 0 0 0 0 0 0 0 0 0 0 0 0 0 0 0 0 0 0 0 0 0
-0 -0 -0 -0 0 0 0 0 0 0 0 0 0 0 0 0 0 0 0 0 0 0 0 0 0 0 0 0 0 0 0 0 0 0 0 0 0 0 0 0 0 0 0 0
-0 0 0 -0 -0 -0 0 0 0 0 0 -0 0 0 0 0 0 0 0 0 0 0 0 0 0 0 0 0 0 0 0 0 0 0 0 0 0 0 0 0 0 0 0 0
0 0 0 0 0 0 0 0 0 0 0 0 0 0 0 0 0 0 0 0 0 0 0 0 0 0 0 0 0 0 0 0 0 0 0 0 0 0 0 0 0 0 0 0
0 0 0 0 0 0 0 0 0 0 0 0 0 0 0 0 0 0 0 0 0 0 0 0 0 0 0 0 0 0 0 0 0 0 0 0 0 0 0 0 0 0 0 0
0 0 0 0 0 0 0 0 0 0 0 0 0 0 0 0 0 0 0 0 0 0 0 0 0 0 0 0 0 0 0 0 0 0 0 0 0 0 0 0 0 0 0 0
0 0 0 0 0 0 0 0 0 0 0 0 0 0 0 0 0 0 0 0 0 0 0 0 0 0 0 0 0 0 0 0 0 0 0 0 0 0 0 0 0 0 0 0
0 0 0 0 0 0 0 0 0 0 0 0 0 0 0 0 0 0 0 0 0 0 0 0 0 0 0 0 0 0 0 0 0 0 0 0 0 0 0 0 0 0 0 0
0 0 0 0 0 0 0 0 0 0 0 0 0 0 0 0 0 0 0 0 0 0 0 0 0 0 0 0 0 0 0 0 0 0 0 0 0 0 0 0 0 0 0 0
0 0 0 0 0 0 0 0 0 0 0 0 0 0 0 0 0 0 0 0 0 0 0 0 0 0 0 0 0 0 0 0 0 0 0 0 0 0 0 0 0 0 0 0
0 0 0 0 0 0 0 0 0 0 0 0 0 0 0 0 0 0 0 0 0 0 0 0 0 0 0 0 0 0 0 0 0 0 0 0 0 0 0 0 0 0 0 0
0 0 0 0 0 0 0 0 0 0 0 0 0 0 0 0 0 0 0 0 0 0 0 0 0 0 0 0 0 0 0 0 0 0 0 0 0 0 0 0 0 0 0 0
0 0 0 0 0 0 0 0 0 0 0 0 0 0 0 0 0 0 0 0 0 0 0 0 0 0 0 0 0 0 0 0 0 0 0 0 0 0 0 0 0 0 0 0
0 0 0 0 0 0 0 0 0 0 0 0 0 0 0 0 0 0 0 0 0 0 0 0 0 0 0 0 0 0 0 0 0 0 0 0 0 0 0 0 0 0 0 0
0 0 0 0 0 0 0 0 -0 0 0 0 0 0 0 0 0 0 0 0 0 0 0 0 0 0 0 0 0 0 0 0 0 0 0 0 0 0 0 0 0 0 0 0
Wind_Speed_500mb
15 21 18 14 27 28 17 18 11 12 12 18 17 15 11 34 47 47 53 76 78 83 78 85 73 48 43 44 36 43 48 47 52 47 40 43 33 34 31 30 28 23 21 25
10 24 20 11 26 41 31 28 19 24 14 4 27 11 35 29 66 58 55 58 62 68 74 79 59 36 44 32 43 53 50 38 38 57 36 43 50 39 33 41 32 27 25 26
1 15 19 8 28 36 24 33 9 9 10 13 13 23 34 48 37 18 41 43 50 50 56 56 45 51 56 45 52 54 37 34 34 31 29 44 58 49 40 36 36 32 34 36
4 13 3 1 26 19 27 26 29 27 22 22 35 34 28 15 13 9 13 38 45 47 58 50 55 62 51 42 41 39 37 28 21 25 30 32 35 35 36 34 37 39 39 38
4 2 3 8 10 11 14 11 14 14 15 36 36 40 41 22 21 18 11 16 18 42 50 60 57 52 42 38 37 32 28 20 25 31 30 30 31 35 36 30 29 40 41 32
9 9 2 5 20 27 17 10 12 18 17 19 20 9 6 25 17 15 11 17 21 32 45 51 44 41 34 28 30 28 26 28 26 22 20 18 19 22 22 25 27 23 27 26
15 6 6 9 25 31 7 7 30 32 32 23 11 15 21 19 16 15 16 17 16 19 22 23 26 28 32 33 34 41 33 28 22 18 15 16 17 14 10 11 17 20 20 24
6 8 5 8 18 3 5 28 29 31 24 25 25 33 27 20 17 17 20 18 17 17 17 17 18 23 34 36 29 26 29 26 24 20 17 17 17 18 14 11 11 11 16 23
12 9 14 30 26 30 27 24 14 20 34 40 38 32 26 22 16 14 20 23 20 18 18 18 19 19 22 22 24 28 37 43 41 35 29 27 23 18 18 15 10 9 13 15
9 20 18 28 29 32 28 23 24 31 39 35 45 35 32 31 30 30 26 23 20 22 24 26 22 21 18 22 22 24 27 24 26 28 27 29 29 29 26 22 19 16 18 14
6 14 14 33 31 25 19 21 25 24 32 35 42 38 40 38 38 32 31 26 23 22 22 22 20 19 19 20 20 22 20 19 20 17 16 20 23 21 22 25 21 22 20 20
7 27 14 26 22 14 16 21 18 23 28 28 29 29 28 29 27 28 27 26 23 24 26 26 24 24 23 21 21 20 22 22 18 16 8 11 14 15 15 16 20 21 22 24
27 30 35 29 21 10 11 19 16 17 15 25 19 13 15 26 22 25 22 25 21 16 18 18 18 19 19 21 23 24 22 20 14 9 7 3 5 4 13 26 25 25 32 33
29 30 23 18 12 11 7 12 4 6 15 20 23 16 19 28 33 32 29 29 25 20 17 16 14 13 15 19 25 26 22 21 26 28 15 9 4 1 2 7 4 4 15 24
25 21 21 21 22 22 13 8 6 6 9 23 18 19 20 27 33 33 33 32 28 23 26 23 18 11 8 9 13 20 18 26 30 30 25 30 25 19 11 8 6 4 8 8
22 19 20 30 20 11 15 12 7 9 8 32 27 25 16 16 18 32 45 44 39 32 32 26 23 19 22 21 21 20 18 24 32 28 26 25 25 18 23 19 15 13 9 1
25 22 21 17 20 16 14 8 6 5 1 11 9 21 20 23 25 26 29 50 46 42 39 38 32 27 23 24 25 27 32 30 29 31 31 22 26 21 20 26 20 21 18 9
19 26 21 17 12 15 13 15 8 2 5 12 9 6 16 24 32 30 27 27 33 31 34 29 22 25 20 17 16 18 23 20 19 29 34 30 27 29 23 23 22 20 20 18
17 21 22 19 13 9 14 17 17 10 2 8 14 15 10 11 8 24 34 34 39 37 36 39 33 31 30 24 20 18 24 22 24 17 32 35 30 35 36 25 26 14 20 22
22 17 19 17 17 15 14 18 18 10 5 7 2 4 6 10 11 3 10 24 36 38 36 40 42 34 30 36 27 28 28 29 32 28 21 33 28 27 27 32 27 24 24 15
29 24 24 24 23 20 13 18 16 13 10 6 3 6 10 12 10 10 7 10 21 19 20 31 49 55 53 43 39 39 41 32 34 39 34 32 34 32 25 36 30 32 27 24
36 33 31 29 27 26 22 18 18 17 12 9 9 12 12 13 13 17 17 19 17 15 16 20 25 31 38 40 40 43 42 41 41 40 43 44 42 40 32 32 36 37 29 27
42 41 40 40 38 35 30 30 25 21 21 19 18 15 14 15 14 15 12 6 8 14 11 15 20 15 26 31 38 51 50 43 40 48 43 47 47 42 37 39 36 33 30 35
47 48 50 46 38 39 45 31 27 23 20 14 14 15 13 11 2 3 9 8 16 23 28 26 21 22 27 31 36 45 52 54 62 55 49 60 47 36 42 34 48 36 39 40
51 51 51 52 51 46 47 44 31 17 16 7 6 8 4 7 9 8 21 19 22 19 19 36 43 43 38 34 38 43 56 59 60 63 69 59 64 54 61 52 50 45 43 40
43 53 55 62 59 58 44 14 5 15 18 15 12 8 14 9 6 5 0 8 12 22 34 46 50 45 35 40 46 43 48 48 54 59 65 66 57 54 53 58 55 49 46 46
50 57 60 67 60 36 16 31 21 23 26 25 27 20 14 10 9 13 18 15 14 22 31 42 41 54 43 38 39 39 44 49 48 51 58 63 57 57 56 63 62 55 54 56
Wind_Direction_500mb
337 253 304 291 302 319 259 252 221 173 113 101 129 146 161 57 18 254 149 151 161 168 176 182 184 183 198 199 218 202 222 203 191 186 228 205 214 224 232 243 243 225 217 217
344 359 306 314 8 17 4 6 35 92 80 168 167 98 40 23 347 304 134 152 166 166 173 174 182 190 210 221 212 221 234 204 215 228 207 256 213 216 221 222 235 228 222 218
126 337 321 67 360 39 42 24 35 55 65 125 71 71 69 75 291 56 127 143 182 178 173 185 194 210 191 205 199 208 209 215 225 236 218 208 208 228 229 240 230 231 234 235
290 344 215 167 19 41 59 46 42 66 58 69 88 96 105 82 104 41 127 149 160 162 163 165 185 192 193 192 183 183 195 196 202 208 205 205 208 215 218 229 233 225 227 233
130 304 218 4 21 360 23 7 69 80 62 98 95 84 64 66 50 80 100 135 176 177 169 171 181 188 200 206 206 208 204 210 206 212 215 219 224 229 228 233 236 240 235 232
137 103 171 279 310 334 341 15 61 101 79 95 61 60 95 88 72 83 115 114 145 140 163 187 190 193 190 201 203 194 186 175 180 194 212 214 221 224 231 231 235 224 214 211
278 137 180 239 281 318 47 221 90 111 109 92 95 122 132 131 91 78 108 132 141 148 166 165 171 184 184 200 199 184 183 176 183 196 210 205 193 186 179 196 194 194 208 218
25 38 88 284 300 88 208 77 122 136 119 108 115 118 136 123 84 84 105 101 112 126 134 143 160 180 179 186 188 193 192 190 179 178 172 168 181 188 191 205 212 230 197 201
113 273 264 83 80 77 83 57 63 145 143 145 148 144 136 112 109 122 111 111 113 120 132 130 140 153 160 157 162 167 172 167 178 181 181 170 160 152 145 134 131 160 169 178
129 232 228 107 85 74 71 49 46 126 144 149 149 156 153 143 145 139 141 143 152 148 140 133 133 136 145 149 162 175 182 175 176 181 181 178 175 167 166 167 175 188 205 197
204 216 142 104 93 87 73 57 48 57 145 139 148 155 161 160 157 157 157 154 162 161 146 143 145 145 144 141 142 143 145 152 175 177 168 172 172 176 177 182 186 188 170 196
211 168 160 117 102 77 68 69 50 68 118 122 126 143 162 162 161 156 159 160 156 152 148 142 146 149 148 149 135 130 130 131 129 126 106 205 223 212 204 204 214 222 213 228
99 124 126 125 129 132 123 102 88 83 120 128 136 139 172 159 174 181 175 162 157 157 159 156 151 152 154 160 161 164 157 154 132 146 120 127 38 3 252 251 249 241 242 248
133 123 125 142 170 172 108 95 162 73 140 139 139 156 180 175 168 166 174 182 189 205 201 179 165 160 166 165 173 183 170 183 177 170 175 164 136 87 60 17 26 232 256 258
150 164 175 186 166 151 164 126 154 203 175 170 164 149 152 185 202 195 190 204 217 223 200 181 167 157 151 166 189 189 191 187 179 190 201 208 206 222 227 232 216 284 323 302
159 180 190 154 153 146 173 160 235 278 334 195 181 186 195 187 177 204 200 205 214 214 201 211 244 251 258 254 239 243 214 190 194 203 205 211 214 220 190 219 230 246 257 40
171 186 193 178 175 194 190 203 236 171 234 62 147 218 217 209 200 201 210 220 229 231 236 240 242 251 244 246 252 246 239 232 225 219 224 227 202 196 215 228 229 231 230 228
198 197 192 194 193 189 192 178 158 73 275 271 280 246 33 225 220 238 247 229 224 226 228 239 238 242 236 238 234 226 225 234 236 235 223 206 207 210 215 200 212 227 222 239
192 163 165 179 177 132 158 185 170 183 54 350 309 303 274 302 250 251 243 240 241 238 235 243 247 251 244 245 243 228 218 237 256 266 221 219 223 222 221 216 223 232 221 234
177 175 181 185 186 180 160 147 160 166 162 224 303 211 267 295 317 317 247 246 247 260 246 236 248 258 261 249 242 245 225 226 248 257 244 219 228 237 229 218 219 244 236 229
180 182 181 184 179 176 173 191 179 170 189 175 207 337 348 356 342 324 330 302 305 286 267 252 231 251 241 236 244 243 235 224 241 249 250 237 238 245 239 218 222 223 223 224
188 188 185 187 186 189 194 191 186 182 204 216 230 252 269 285 303 313 319 306 283 291 272 262 262 256 254 253 251 243 243 238 235 242 241 243 233 238 246 226 234 229 215 214
199 196 193 192 193 197 194 190 188 203 215 226 241 260 267 266 260 287 317 348 280 268 282 293 274 260 261 262 251 247 245 237 239 241 239 237 236 242 246 228 237 239 225 219
205 205 206 201 197 199 199 191 184 194 215 230 265 250 264 244 208 19 86 345 307 307 306 311 329 311 281 265 255 251 249 249 238 246 230 234 227 223 220 237 235 232 219 222
211 210 206 199 197 196 191 185 189 234 239 204 220 278 126 146 204 279 283 296 336 340 332 328 323 309 280 277 279 273 262 256 253 246 236 236 233 245 239 235 225 224 224 224
218 206 200 200 190 171 167 178 211 212 202 194 185 159 172 230 283 116 344 332 311 310 314 331 342 330 298 273 270 271 268 267 257 252 246 236 227 228 218 218 220 217 221 219
209 202 191 178 170 163 133 130 162 205 212 197 184 190 200 187 229 247 292 293 301 296 313 328 347 354 328 300 294 272 260 259 266 260 243 235 232 226 225 224 228 219 219 223
Wind_Speed_850mb
15 21 18 14 27 28 17 18 11 12 12 18 17 15 11 34 47 47 53 76 78 83 78 85 73 48 43 44 36 43 48 47 52 47 40 43 33 34 31 30 28 23 21 25
10 24 20 11 26 41 31 28 19 24 14 4 27 11 35 29 66 58 55 58 62 68 74 79 59 36 44 32 43 53 50 38 38 57 36 43 50 39 33 41 32 27 25 26
1 15 19 8 28 36 24 33 9 9 10 13 13 23 34 48 37 18 41 43 50 50 56 56 45 51 56 45 52 54 37 34 34 31 29 44 58 49 40 36 36 32 34 36
4 13 3 1 26 19 27 26 29 27 22 22 35 34 28 15 13 9 13 38 45 47 58 50 55 62 51 42 41 39 37 28 21 25 30 32 35 35 36 34 37 39 39 38
4 2 3 8 10 11 14 11 14 14 15 36 36 40 41 22 21 18 11 16 18 42 50 60 57 52 42 38 37 32 28 20 25 31 30 30 31 35 36 30 29 40 41 32
9 9 2 5 20 27 17 10 12 18 17 19 20 9 6 25 17 15 11 17 21 32 45 51 44 41 34 28 30 28 26 28 26 22 20 18 19 22 22 25 27 23 27 26
15 6 6 9 25 31 7 7 30 32 32 23 11 15 21 19 16 15 16 17 16 19 22 23 26 28 32 33 34 41 33 28 22 18 15 16 17 14 10 11 17 20 20 24
6 8 5 8 18 3 5 28 29 31 24 25 25 33 27 20 17 17 20 18 17 17 17 17 18 23 34 36 29 26 29 26 24 20 17 17 17 18 14 11 11 11 16 23
12 9 14 30 26 30 27 24 14 20 34 40 38 32 26 22 16 14 20 23 20 18 18 18 19 19 22 22 24 28 37 43 41 35 29 27 23 18 18 15 10 9 13 15
9 20 18 28 29 32 28 23 24 31 39 35 45 35 32 31 30 30 26 23 20 22 24 26 22 21 18 22 22 24 27 24 26 28 27 29 29 29 26 22 19 16 18 14
6 14 14 33 31 25 19 21 25 24 32 35 42 38 40 38 38 32 31 26 23 22 22 22 20 19 19 20 20 22 20 19 20 17 16 20 23 21 22 25 21 22 20 20
7 27 14 26 22 14 16 21 18 23 28 28 29 29 28 29 27 28 27 26 23 24 26 26 24 24 23 21 21 20 22 22 18 16 8 11 14 15 15 16 20 21 22 24
27 30 35 29 21 10 11 19 16 17 15 25 19 13 15 26 22 25 22 25 21 16 18 18 18 19 19 21 23 24 22 20 14 9 7 3 5 4 13 26 25 25 32 33
29 30 23 18 12 11 7 12 4 6 15 20 23 16 19 28 33 32 29 29 25 20 17 16 14 13 15 19 25 26 22 21 26 28 15 9 4 1 2 7 4 4 15 24
25 21 21 21 22 22 13 8 6 6 9 23 18 19 20 27 33 33 33 32 28 23 26 23 18 11 8 9 13 20 18 26 30 30 25 30 25 19 11 8 6 4 8 8
22 19 20 30 20 11 15 12 7 9 8 32 27 25 16 16 18 32 45 44 39 32 32 26 23 19 22 21 21 20 18 24 32 28 26 25 25 18 23 19 15 13 9 1
25 22 21 17 20 16 14 8 6 5 1 11 9 21 20 23 25 26 29 50 46 42 39 38 32 27 23 24 25 27 32 30 29 31 31 22 26 21 20 26 20 21 18 9
19 26 21 17 12 15 13 15 8 2 5 12 9 6 16 24 32 30 27 27 33 31 34 29 22 25 20 17 16 18 23 20 19 29 34 30 27 29 23 23 22 20 20 18
17 21 22 19 13 9 14 17 17 10 2 8 14 15 10 11 8 24 34 34 39 37 36 39 33 31 30 24 20 18 24 22 24 17 32 35 30 35 36 25 26 14 20 22
22 17 19 17 17 15 14 18 18 10 5 7 2 4 6 10 11 3 10 24 36 38 36 40 42 34 30 36 27 28 28 29 32 28 21 33 28 27 27 32 27 24 24 15
29 24 24 24 23 20 13 18 16 13 10 6 3 6 10 12 10 10 7 10 21 19 20 31 49 55 53 43 39 39 41 32 34 39 34 32 34 32 25 36 30 32 27 24
36 33 31 29 27 26 22 18 18 17 12 9 9 12 12 13 13 17 17 19 17 15 16 20 25 31 38 40 40 43 42 41 41 40 43 44 42 40 32 32 36 37 29 27
42 41 40 40 38 35 30 30 25 21 21 19 18 15 14 15 14 15 12 6 8 14 11 15 20 15 26 31 38 51 50 43 40 48 43 47 47 42 37 39 36 33 30 35
47 48 50 46 38 39 45 31 27 23 20 14 14 15 13 11 2 3 9 8 16 23 28 26 21 22 27 31 36 45 52 54 62 55 49 60 47 36 42 34 48 36 39 40
51 51 51 52 51 46 47 44 31 17 16 7 6 8 4 7 9 8 21 19 22 19 19 36 43 43 38 34 38 43 56 59 60 63 69 59 64 54 61 52 50 45 43 40
43 53 55 62 59 58 44 14 5 15 18 15 12 8 14 9 6 5 0 8 12 22 34 46 50 45 35 40 46 43 48 48 54 59 65 66 57 54 53 58 55 49 46 46
50 57 60 67 60 36 16 31 21 23 26 25 27 20 14 10 9 13 18 15 14 22 31 42 41 54 43 38 39 39 44 49 48 51 58 63 57 57 56 63 62 55 54 56
Wind_Direction_850mb
337 253 304 291 302 319 259 252 221 173 113 101 129 146 161 57 18 254 149 151 161 168 176 182 184 183 198 199 218 202 222 203 191 186 228 205 214 224 232 243 243 225 217 217
344 359 306 314 8 17 4 6 35 92 80 168 167 98 40 23 347 304 134 152 166 166 173 174 182 190 210 221 212 221 234 204 215 228 207 256 213 216 221 222 235 228 222 218
126 337 321 67 360 39 42 24 35 55 65 125 71 71 69 75 291 56 127 143 182 178 173 185 194 210 191 205 199 208 209 215 225 236 218 208 208 228 229 240 230 231 234 235
290 344 215 167 19 41 59 46 42 66 58 69 88 96 105 82 104 41 127 149 160 162 163 165 185 192 193 192 183 183 195 196 202 208 205 205 208 215 218 229 233 225 227 233
130 304 218 4 21 360 23 7 69 80 62 98 95 84 64 66 50 80 100 135 176 177 169 171 181 188 200 206 206 208 204 210 206 212 215 219 224 229 228 233 236 240 235 232
137 103 171 279 310 334 341 15 61 101 79 95 61 60 95 88 72 83 115 114 145 140 163 187 190 193 190 201 203 194 186 175 180 194 212 214 221 224 231 231 235 224 214 211
278 137 180 239 281 318 47 221 90 111 109 92 95 122 132 131 91 78 108 132 141 148 166 165 171 184 184 200 199 184 183 176 183 196 210 205 193 186 179 196 194 194 208 218
25 38 88 284 300 88 208 77 122 136 119 108 115 118 136 123 84 84 105 101 112 126 134 143 160 180 179 186 188 193 192 190 179 178 172 168 181 188 191 205 212 230 197 201
113 273 264 83 80 77 83 57 63 145 143 145 148 144 136 112 109 122 111 111 113 120 132 130 140 153 160 157 162 167 172 167 178 181 181 170 160 152 145 134 131 160 169 178
129 232 228 107 85 74 71 49 46 126 144 149 149 156 153 143 145 139 141 143 152 148 140 133 133 136 145 149 162 175 182 175 176 181 181 178 175 167 166 167 175 188 205 197
204 216 142 104 93 87 73 57 48 57 145 139 148 155 161 160 157 157 157 154 162 161 146 143 145 145 144 141 142 143 145 152 175 177 168 172 172 176 177 182 186 188 170 196
211 168 160 117 102 77 68 69 50 68 118 122 126 143 162 162 161 156 159 160 156 152 148 142 146 149 148 149 135 130 130 131 129 126 106 205 223 212 204 204 214 222 213 228
99 124 126 125 129 132 123 102 88 83 120 128 136 139 172 159 174 181 175 162 157 157 159 156 151 152 154 160 161 164 157 154 132 146 120 127 38 3 252 251 249 241 242 248
133 123 125 142 170 172 108 95 162 73 140 139 139 156 180 175 168 166 174 182 189 205 201 179 165 160 166 165 173 183 170 183 177 170 175 164 136 87 60 17 26 232 256 258
150 164 175 186 166 151 164 126 154 203 175 170 164 149 152 185 202 195 190 204 217 223 200 181 167 157 151 166 189 189 191 187 179 190 201 208 206 222 227 232 216 284 323 302
159 180 190 154 153 146 173 160 235 278 334 195 181 186 195 187 177 204 200 205 214 214 201 211 244 251 258 254 239 243 214 190 194 203 205 211 214 220 190 219 230 246 257 40
171 186 193 178 175 194 190 203 236 171 234 62 147 218 217 209 200 201 210 220 229 231 236 240 242 251 244 246 252 246 239 232 225 219 224 227 202 196 215 228 229 231 230 228
198 197 192 194 193 189 192 178 158 73 275 271 280 246 33 225 220 238 247 229 224 226 228 239 238 242 236 238 234 226 225 234 236 235 223 206 207 210 215 200 212 227 222 239
192 163 165 179 177 132 158 185 170 183 54 350 309 303 274 302 250 251 243 240 241 238 235 243 247 251 244 245 243 228 218 237 256 266 221 219 223 222 221 216 223 232 221 234
177 175 181 185 186 180 160 147 160 166 162 224 303 211 267 295 317 317 247 246 247 260 246 236 248 258 261 249 242 245 225 226 248 257 244 219 228 237 229 218 219 244 236 229
180 182 181 184 179 176 173 191 179 170 189 175 207 337 348 356 342 324 330 302 305 286 267 252 231 251 241 236 244 243 235 224 241 249 250 237 238 245 239 218 222 223 223 224
188 188 185 187 186 189 194 191 186 182 204 216 230 252 269 285 303 313 319 306 283 291 272 262 262 256 254 253 251 243 243 238 235 242 241 243 233 238 246 226 234 229 215 214
199 196 193 192 193 197 194 190 188 203 215 226 241 260 267 266 260 287 317 348 280 268 282 293 274 260 261 262 251 247 245 237 239 241 239 237 236 242 246 228 237 239 225 219
205 205 206 201 197 199 199 191 184 194 215 230 265 250 264 244 208 19 86 345 307 307 306 311 329 311 281 265 255 251 249 249 238 246 230 234 227 223 220 237 235 232 219 222
211 210 206 199 197 196 191 185 189 234 239 204 220 278 126 146 204 279 283 296 336 340 332 328 323 309 280 277 279 273 262 256 253 246 236 236 233 245 239 235 225 224 224 224
218 206 200 200 190 171 167 178 211 212 202 194 185 159 172 230 283 116 344 332 311 310 314 331 342 330 298 273 270 271 268 267 257 252 246 236 227 228 218 218 220 217 221 219
209 202 191 178 170 163 133 130 162 205 212 197 184 190 200 187 229 247 292 293 301 296 313 328 347 354 328 300 294 272 260 259 266 260 243 235 232 226 225 224 228 219 219 223